TimeEDT,TemperatureF,Dew PointF,Humidity,Sea Level PressureIn,VisibilityMPH,Wind Direction,Wind SpeedMPH,Gust SpeedMPH,PrecipitationIn,Events,Conditions,WindDirDegrees,DateUTC
12:58 AM,36.1,29.7,77,30.30,10.0,SE,1.2,-,N/A,,Clear,130,2013-03-28 04:58:00
1:58 AM,35.6,29.1,77,30.30,10.0,SE,2.3,-,N/A,,Clear,140,2013-03-28 05:58:00
2:58 AM,34.0,29.5,84,30.30,10.0,ESE,1.2,-,N/A,,Clear,120,2013-03-28 06:58:00
3:58 AM,33.3,30.9,91,30.30,10.0,SE,1.2,-,N/A,,Clear,130,2013-03-28 07:58:00
4:58 AM,31.1,29.7,94,30.30,10.0,ESE,2.3,-,N/A,,Clear,120,2013-03-28 08:58:00
5:58 AM,30.9,30.0,96,30.32,10.0,Calm,Calm,-,N/A,,Clear,0,2013-03-28 09:58:00
6:08 AM,32.0,30.2,93,30.31,9.0,Calm,Calm,-,N/A,,Clear,0,2013-03-28 10:08:00
6:13 AM,32.0,30.2,93,30.31,9.0,Calm,Calm,-,N/A,,Clear,0,2013-03-28 10:13:00
6:28 AM,32.0,32.0,100,30.32,8.0,Calm,Calm,-,N/A,,Clear,0,2013-03-28 10:28:00
6:43 AM,30.2,28.4,93,30.32,5.0,Calm,Calm,-,N/A,,Clear,10,2013-03-28 10:43:00
6:48 AM,30.2,30.2,100,30.32,2.0,SE,1.2,-,N/A,,Clear,130,2013-03-28 10:48:00
6:53 AM,30.2,30.2,100,30.32,2.5,SE,1.2,-,N/A,,Clear,130,2013-03-28 10:53:00
6:58 AM,29.8,29.5,99,30.33,6.0,SE,1.2,-,N/A,,Clear,130,2013-03-28 10:58:00
7:03 AM,30.2,30.2,100,30.32,10.0,SSE,2.3,-,N/A,,Clear,150,2013-03-28 11:03:00
7:58 AM,29.1,28.4,97,30.35,10.0,ESE,2.3,-,N/A,,Clear,120,2013-03-28 11:58:00
8:33 AM,32.0,32.0,100,30.35,0.8,ESE,1.2,-,N/A,,Clear,120,2013-03-28 12:33:00
8:38 AM,32.0,32.0,100,30.35,7.0,SSE,2.3,-,N/A,,Clear,150,2013-03-28 12:38:00
8:58 AM,35.6,34.0,94,30.37,9.0,Calm,Calm,-,N/A,,Clear,0,2013-03-28 12:58:00
9:58 AM,43.9,35.8,73,30.38,10.0,North,2.3,-,N/A,,Clear,10,2013-03-28 13:58:00
10:58 AM,52.2,32.2,47,30.38,10.0,North,4.6,-,N/A,,Clear,10,2013-03-28 14:58:00
11:58 AM,56.5,29.5,36,30.37,10.0,Variable,5.8,-,N/A,,Clear,0,2013-03-28 15:58:00
12:58 PM,61.0,29.8,31,30.34,10.0,NW,8.1,-,N/A,,Clear,320,2013-03-28 16:58:00
1:58 PM,62.4,26.4,26,30.33,10.0,Variable,5.8,-,N/A,,Clear,0,2013-03-28 17:58:00
2:30 PM,64.4,28.4,26,30.30,10.0,North,13.8,19.6,N/A,,Clear,350,2013-03-28 18:30:00
2:31 PM,64.4,28.4,26,30.30,10.0,NNE,13.8,19.6,N/A,,Clear,20,2013-03-28 18:31:00
2:58 PM,65.1,28.9,26,30.29,10.0,North,11.5,-,N/A,,Clear,350,2013-03-28 18:58:00
3:58 PM,66.7,29.7,25,30.25,10.0,NW,8.1,-,N/A,,Clear,320,2013-03-28 19:58:00
4:58 PM,67.5,30.0,25,30.24,10.0,East,2.3,-,N/A,,Clear,80,2013-03-28 20:58:00
5:58 PM,67.8,27.7,22,30.23,10.0,North,10.4,-,N/A,,Clear,350,2013-03-28 21:58:00
6:58 PM,66.2,28.4,24,30.24,10.0,NNW,8.1,-,N/A,,Clear,340,2013-03-28 22:58:00
7:58 PM,57.7,34.3,41,30.25,10.0,WNW,2.3,-,N/A,,Clear,300,2013-03-28 23:58:00
8:58 PM,48.9,34.7,58,30.27,10.0,Calm,Calm,-,N/A,,Clear,0,2013-03-29 00:58:00
9:58 PM,45.1,34.9,67,30.30,10.0,Calm,Calm,-,N/A,,Clear,0,2013-03-29 01:58:00
10:58 PM,43.9,35.1,71,30.31,10.0,Variable,1.2,-,N/A,,Clear,0,2013-03-29 02:58:00
11:58 PM,41.4,35.1,78,30.31,10.0,SSE,2.3,-,N/A,,Clear,160,2013-03-29 03:58:00